[[{"header":{"parameterUnit":"m.s-1","parameterCategory":1,"la1":30.2991,"la2":30.254,"lo1":-89.0895,"lo2":-89.0444,"dy":0.0017,"dx":0.0017,"nx":28,"ny":28,"refTime":"2024-02-16T09:00:00:Z","depth":0,"parameterNumber":2,"parameterNumberName":"U-component_of_WINDS"},"data":[0,0,0,0,0,0,0,0,0,0,0,0,0,0,0,0,0,0,0,0,0,0,0,0,0,0,0,0,0,0,0,0,0,0,0,0,0,0,0,0,0,0,0,0,0,0,0,0,0,0,0,0,0,0,0,0,0,0,-1.932,-1.9321,0,-1.938,-1.9381,-1.9382,-1.9322,-1.9319,-1.9317,-1.9315,-1.9379,-1.9383,-1.9387,0,0,0,0,0,0,0,0,0,0,0,0,0,-1.9154,-1.9157,-1.932,-1.9321,-1.9321,-1.938,-1.9381,-1.9382,-1.9322,-1.9319,-1.9316,-1.9313,-1.9378,-1.9383,-1.9388,0,0,0,0,0,0,0,0,0,0,0,0,0,-1.9221,-1.9158,-1.932,-1.9298,-1.9297,-1.938,-1.9381,-1.9382,-1.9323,-1.9319,-1.9315,-1.9312,-1.9377,-1.9382,-1.9388,-1.9496,0,0,-1.9406,-1.9409,0,0,0,0,0,0,0,0,-1.9218,-1.9228,-1.9301,-1.93,-1.9299,-1.934,-1.9346,-1.9421,-1.9323,-1.9313,-1.9315,-1.931,-1.9369,-1.9376,-1.9395,-1.9499,-1.9502,-1.9407,-1.941,-1.9413,-1.9415,0,0,0,0,0,0,0,-1.9213,-1.9225,-1.9344,-1.9302,-1.9301,-1.9286,-1.9292,-1.936,-1.9361,-1.9314,-1.9309,-1.9317,-1.9368,-1.9389,-1.9396,-1.9503,-1.9407,-1.9412,-1.9416,-1.9418,-1.9698,-1.9702,0,0,0,0,0,0,-1.921,-1.9221,-1.9342,-1.9346,-1.9248,-1.9292,-1.9299,-1.933,-1.936,-1.9361,-1.932,-1.9314,-1.9381,-1.9389,-1.9398,-1.9527,-1.9413,-1.9418,-1.9422,-1.9694,-1.9699,-1.9703,0,0,0,0,0,0,-1.9207,-1.9222,-1.9339,-1.9282,-1.9296,-1.9299,-1.9335,-1.9333,-1.9354,-1.9365,-1.9365,-1.9342,-1.9378,-1.939,-1.9472,-1.9528,-1.9421,-1.9426,-1.969,-1.9696,-1.9701,-1.9785,0,0,0,0,0,0,-1.9203,-1.9221,-1.9262,-1.9284,-1.9299,-1.9412,-1.9338,-1.9337,-1.9365,-1.9357,-1.9385,-1.9386,-1.9377,-1.9463,-1.9478,-1.9534,-1.9431,-1.9685,-1.9692,-1.9699,-1.9777,-1.9793,-1.9806,0,0,0,0,0,-1.9197,-1.9283,-1.9264,-1.9279,-1.935,-1.9416,-1.9425,-1.9411,-1.9369,-1.9411,-1.9417,-1.9385,-1.9519,-1.9472,-1.9488,-1.9547,-1.9681,-1.969,-1.9699,-1.977,-1.9789,-1.9806,0,0,0,0,0,0,-1.927,-1.9286,-1.9265,-1.9361,-1.9387,-1.9405,-1.9457,-1.9432,-1.9472,-1.9463,-1.9445,-1.9452,-1.9539,-1.9551,-1.9499,-1.9653,-1.9593,-1.9606,-1.9642,-1.9661,-1.9675,-1.9671,-1.9436,0,0,0,0,0,-1.9296,-1.9347,-1.9359,-1.9443,-1.9457,-1.9455,-1.9483,-1.947,-1.9497,-1.9508,-1.952,-1.9548,-1.9596,-1.9629,-1.9674,-1.9777,-1.9783,-1.9826,-1.984,-1.9852,-1.9864,-1.9919,-1.9939,-1.9732,-1.9732,-1.9732,0,0,-1.9353,-1.9368,-1.9402,-1.9458,-1.9477,-1.953,-1.9465,-1.9524,-1.9564,-1.9517,-1.9596,-1.9605,-1.9635,-1.9729,-1.9771,-1.9741,-1.9921,-1.9863,-1.9873,-1.9878,-1.993,-1.995,-1.9967,-1.9738,-1.9737,-1.9736,0,0,-1.9485,-1.9501,-1.9572,-1.9592,-1.9621,-1.9619,-1.9636,-1.9657,-1.9662,-1.974,-1.9705,-1.9752,-1.9836,-1.9859,-1.9881,-2.0019,-1.9992,-2.0034,-2.0111,-2.0166,-2.0182,-2.0196,-2.0246,-2.0265,-2.0045,-2.0045,-2.0046,0,-1.9552,-1.9631,-1.9613,-1.9675,-1.97,-1.9658,-1.9731,-1.9751,-1.9794,-1.9813,-1.9779,-1.9882,-1.9899,-1.9997,-2.0031,-2.005,-2.007,-2.0032,-2.0181,-2.0195,-2.0208,-2.0256,-2.0275,-2.005,-2.005,-2.0049,-2.0049,0,-1.9713,-1.9768,-1.9822,-1.9863,-1.9895,-1.9962,-1.9954,-1.9988,-1.9972,-1.9974,-2.0053,-2.0072,-2.012,-2.0142,-2.0127,-2.0238,-2.0219,-2.0183,-2.0124,-2.0233,-2.0278,-2.0296,-2.0058,-2.0056,-2.0054,-2.0053,0,0,-1.9894,-1.9922,-1.9943,-1.9961,-1.9989,-2.0031,-2.0096,-2.0142,-2.0172,-2.0202,-2.0257,-2.0327,-2.0294,-2.0319,-2.0306,-2.0354,-2.0463,-2.0312,-2.0313,-2.0341,-2.0587,-2.0615,-2.0636,-2.0444,-2.0447,-2.045,-2.0585,0,-2.0027,-2.0139,-2.0124,-2.0232,-2.0283,-2.0243,-2.0299,-2.0323,-2.0325,-2.0369,-2.0372,-2.0423,-2.0374,-2.0389,-2.0435,-2.044,-2.0513,-2.043,-2.0496,-2.0498,-2.0491,-2.066,-2.069,-2.0816,-2.0602,-2.0605,-2.0607,0,-2.0198,-2.0233,-2.0346,-2.0365,-2.0386,-2.0437,-2.0477,-2.0519,-2.0545,-2.0543,-2.0571,-2.0549,-2.0615,-2.0552,-2.0642,-2.0586,-2.0612,-2.0618,-2.0623,-2.063,-2.0561,-2.0673,-2.0856,-2.0876,-2.0634,-2.0632,-2.063,0,-2.032,-2.0395,-2.0473,-2.0489,-2.0513,-2.055,-2.0562,-2.0584,-2.0612,-2.0647,-2.0665,-2.0708,-2.0732,-2.0765,-2.0756,-2.0711,-2.0848,-2.0785,-2.085,-2.085,-2.0883,-2.0881,-2.1074,-2.0896,-2.0896,-2.0896,-2.0895,0,-2.0471,-2.0542,-2.0528,-2.0576,-2.0654,-2.0635,-2.0714,-2.072,-2.074,-2.0789,-2.0756,-2.0803,-2.0786,-2.0832,-2.0824,-2.09,-2.0911,-2.0912,-2.091,-2.0916,-2.0917,-2.0934,-2.0926,-2.0901,-2.0899,-2.0898,-2.0898,0,-2.0622,-2.0615,-2.0697,-2.0712,-2.0718,-2.0775,-2.0788,-2.0834,-2.0832,-2.0894,-2.0908,-2.0907,-2.0959,-2.0952,-2.101,-2.1005,-2.11,-2.1086,-2.1091,-2.1089,-2.1155,-2.1149,-2.1368,-2.1396,-2.1198,-2.12,-2.1202,0,-2.072,-2.0774,-2.0794,-2.0824,-2.0838,-2.0887,-2.0915,-2.0898,-2.0929,-2.0961,-2.1003,-2.1051,-2.1089,-2.1174,-2.1179,-2.1223,-2.1211,-2.1284,-2.1218,-2.1222,-2.1214,-2.1211,-2.1217,-2.1298,-2.1301,-2.1302,-2.1304,0,-2.0895,-2.0889,-2.093,-2.0971,-2.1005,-2.1036,-2.1064,-2.109,-2.1076,-2.1112,-2.1164,-2.1194,-2.1252,-2.1301,-2.1342,-2.1355,-2.1328,-2.1324,-2.1342,-2.135,-2.1352,-2.1353,-2.1129,-2.132,-2.1318,-2.1317,-2.1316,-2.1316,-2.1024,-2.1069,-2.1091,-2.1138,-2.1157,-2.1183,-2.1226,-2.123,-2.1273,-2.1319,-2.1305,-2.1365,-2.1388,-2.144,-2.1457,-2.1503,-2.1476,-2.1502,-2.1508,-2.1515,-2.1524,-2.1342,-2.151,-2.151,-2.1509,-2.1509,-2.1509,0,-2.1198,-2.1209,-2.1252,-2.1292,-2.1329,-2.1298,-2.1327,-2.1361,-2.1413,-2.1436,-2.1474,-2.1534,-2.1581,-2.1588,-2.1633,-2.1669,-2.1657,-2.1681,-2.1679,-2.1683,-2.1545,-2.1525,-2.1689,-2.1689,-2.1689,-2.1689,-2.1689,-2.1689,-2.1293,-2.1369,-2.1365,-2.1449,-2.146,-2.1517,-2.1537,-2.1561,-2.1579,-2.1647,-2.1686,-2.169,-2.1707,-2.1752,-2.1794,-2.1795,-2.1813,-2.1842,-2.1839,-2.171,-2.1692,-2.1675,-2.1657,-2.1846,-2.1846,-2.1973,-2.1974,-2.1975]},{"header":{"parameterUnit":"m.s-1","parameterCategory":1,"la1":30.2991,"la2":30.254,"lo1":-89.0895,"lo2":-89.0444,"dy":0.0017,"dx":0.0017,"nx":28,"ny":28,"refTime":"2024-02-16T09:00:00:Z","depth":0,"parameterNumber":3,"parameterNumberName":"V-component_of_WINDS"},"data":[0,0,0,0,0,0,0,0,0,0,0,0,0,0,0,0,0,0,0,0,0,0,0,0,0,0,0,0,0,0,0,0,0,0,0,0,0,0,0,0,0,0,0,0,0,0,0,0,0,0,0,0,0,0,0,0,0,0,-7.465,-7.4651,0,-7.4713,-7.4714,-7.4715,-7.461,-7.4606,-7.4603,-7.4599,-7.4659,-7.4664,-7.4669,0,0,0,0,0,0,0,0,0,0,0,0,0,-7.4433,-7.4438,-7.465,-7.4651,-7.4652,-7.4713,-7.4714,-7.4715,-7.461,-7.4606,-7.4602,-7.4598,-7.4658,-7.4664,-7.467,0,0,0,0,0,0,0,0,0,0,0,0,0,-7.4515,-7.4439,-7.465,-7.4607,-7.4604,-7.4713,-7.4714,-7.4715,-7.4611,-7.4606,-7.4601,-7.4596,-7.4656,-7.4663,-7.467,-7.4823,0,0,-7.4693,-7.4696,0,0,0,0,0,0,0,0,-7.4511,-7.4523,-7.4613,-7.461,-7.4607,-7.4648,-7.466,-7.4751,-7.4613,-7.4608,-7.4599,-7.4593,-7.466,-7.4666,-7.469,-7.4826,-7.4828,-7.4694,-7.4698,-7.4701,-7.4703,0,0,0,0,0,0,0,-7.4505,-7.452,-7.4675,-7.4614,-7.4611,-7.4583,-7.4589,-7.4676,-7.4663,-7.4608,-7.4601,-7.461,-7.4657,-7.4683,-7.4691,-7.4829,-7.4693,-7.47,-7.4704,-7.4707,-7.5091,-7.5097,0,0,0,0,0,0,-7.4505,-7.4516,-7.4673,-7.4677,-7.4545,-7.4591,-7.4597,-7.464,-7.4662,-7.466,-7.4615,-7.4605,-7.4673,-7.4682,-7.4692,-7.4871,-7.4701,-7.4708,-7.4712,-7.5086,-7.5093,-7.5099,0,0,0,0,0,0,-7.4501,-7.452,-7.467,-7.4594,-7.4611,-7.4601,-7.465,-7.4644,-7.467,-7.4667,-7.4663,-7.4644,-7.4669,-7.4682,-7.4791,-7.4872,-7.4711,-7.4718,-7.5079,-7.5088,-7.5096,-7.5231,0,0,0,0,0,0,-7.4495,-7.452,-7.4579,-7.4597,-7.4616,-7.4771,-7.4655,-7.465,-7.4684,-7.4672,-7.4693,-7.4692,-7.4666,-7.4781,-7.4799,-7.4879,-7.4724,-7.5071,-7.5083,-7.5093,-7.522,-7.5244,-7.5264,0,0,0,0,0,-7.4488,-7.4614,-7.4582,-7.4602,-7.469,-7.4775,-7.4786,-7.4755,-7.4691,-7.4749,-7.4747,-7.4691,-7.486,-7.4793,-7.4812,-7.4896,-7.5066,-7.508,-7.5092,-7.521,-7.5239,-7.5264,0,0,0,0,0,0,-7.4604,-7.4615,-7.4581,-7.4716,-7.4746,-7.4758,-7.483,-7.4788,-7.4835,-7.4821,-7.4779,-7.4785,-7.4903,-7.491,-7.4835,-7.5044,-7.4952,-7.497,-7.5035,-7.5063,-7.5085,-7.508,-7.473,0,0,0,0,0,-7.4646,-7.4716,-7.4721,-7.484,-7.4857,-7.4842,-7.4878,-7.4851,-7.4879,-7.4891,-7.4896,-7.4925,-7.4983,-7.5023,-7.5078,-7.522,-7.5222,-7.5287,-7.5309,-7.5328,-7.5343,-7.5417,-7.5446,-7.5141,-7.5141,-7.5141,0,0,-7.4732,-7.4747,-7.4794,-7.4864,-7.4884,-7.4955,-7.4853,-7.4933,-7.4985,-7.4902,-7.5006,-7.5011,-7.504,-7.5166,-7.5222,-7.5176,-7.5428,-7.5344,-7.5359,-7.5364,-7.5434,-7.5462,-7.5488,-7.515,-7.5149,-7.5147,0,0,-7.4926,-7.4945,-7.5046,-7.5068,-7.51,-7.5089,-7.5113,-7.5131,-7.5132,-7.5236,-7.5175,-7.5235,-7.5339,-7.5361,-7.5386,-7.5588,-7.5538,-7.5606,-7.5722,-7.5795,-7.5819,-7.584,-7.5911,-7.5937,-7.5622,-7.5622,-7.5622,0,-7.5029,-7.5136,-7.5103,-7.5188,-7.522,-7.515,-7.525,-7.5272,-7.532,-7.5343,-7.5291,-7.5419,-7.5433,-7.5563,-7.5612,-7.5635,-7.566,-7.5604,-7.5819,-7.5839,-7.5859,-7.5925,-7.5952,-7.563,-7.5629,-7.5628,-7.5628,0,-7.526,-7.5336,-7.5413,-7.5462,-7.5503,-7.5595,-7.5574,-7.5618,-7.5588,-7.5582,-7.5688,-7.5702,-7.5758,-7.5787,-7.5758,-7.5912,-7.5883,-7.5826,-7.5733,-7.5896,-7.5958,-7.5984,-7.5642,-7.5639,-7.5637,-7.5635,0,0,-7.5529,-7.5559,-7.5588,-7.5609,-7.5638,-7.5695,-7.5783,-7.5839,-7.5877,-7.5912,-7.5984,-7.6073,-7.602,-7.6048,-7.6021,-7.6085,-7.6243,-7.602,-7.602,-7.606,-7.6412,-7.6454,-7.6485,-7.621,-7.6215,-7.6218,-7.6409,0,-7.5721,-7.5876,-7.5848,-7.5997,-7.6065,-7.5999,-7.6075,-7.6101,-7.6097,-7.6153,-7.6147,-7.6211,-7.6137,-7.6154,-7.6214,-7.6211,-7.6312,-7.6197,-7.6274,-7.6277,-7.6269,-7.6517,-7.6562,-7.6742,-7.6433,-7.6437,-7.644,0,-7.5966,-7.6012,-7.6168,-7.6186,-7.6214,-7.6283,-7.6332,-7.6386,-7.6413,-7.6405,-7.6438,-7.6398,-7.6483,-7.639,-7.6506,-7.6428,-7.6458,-7.6461,-7.6467,-7.6472,-7.6368,-7.6528,-7.6798,-7.6825,-7.6478,-7.6475,-7.6473,0,-7.6145,-7.6245,-7.6352,-7.6372,-7.6396,-7.6446,-7.6458,-7.6479,-7.6515,-7.6556,-7.6578,-7.6629,-7.6656,-7.6695,-7.667,-7.6604,-7.679,-7.6695,-7.6785,-7.6786,-7.6826,-7.6824,-7.7104,-7.6848,-7.6847,-7.6847,-7.6846,0,-7.6362,-7.6461,-7.6433,-7.6498,-7.6605,-7.6571,-7.6677,-7.6681,-7.6701,-7.6764,-7.671,-7.677,-7.6733,-7.679,-7.677,-7.6869,-7.6882,-7.6877,-7.687,-7.6881,-7.6882,-7.69,-7.6886,-7.6854,-7.6852,-7.6851,-7.685,0,-7.6581,-7.6566,-7.6677,-7.6691,-7.6697,-7.6775,-7.6786,-7.6846,-7.6838,-7.6919,-7.6935,-7.6923,-7.6987,-7.6965,-7.7033,-7.702,-7.7145,-7.7123,-7.7137,-7.7131,-7.7222,-7.7213,-7.7522,-7.7561,-7.7281,-7.7283,-7.7286,0,-7.672,-7.6794,-7.6816,-7.6855,-7.6872,-7.6936,-7.6971,-7.694,-7.6979,-7.7015,-7.707,-7.7129,-7.7175,-7.728,-7.7276,-7.7327,-7.7305,-7.741,-7.7312,-7.7321,-7.7305,-7.7301,-7.7307,-7.7429,-7.7432,-7.7435,-7.7437,0,-7.6968,-7.6957,-7.7012,-7.7064,-7.7109,-7.7148,-7.7181,-7.7216,-7.7187,-7.7233,-7.7299,-7.7334,-7.7404,-7.7463,-7.751,-7.7519,-7.7473,-7.7468,-7.7491,-7.7503,-7.7508,-7.7505,-7.7189,-7.7461,-7.7458,-7.7457,-7.7455,-7.7454,-7.715,-7.7212,-7.7238,-7.73,-7.7322,-7.7355,-7.7412,-7.7412,-7.7466,-7.7522,-7.7499,-7.7574,-7.7597,-7.7655,-7.7671,-7.7728,-7.7687,-7.7722,-7.773,-7.7739,-7.775,-7.75,-7.7737,-7.7736,-7.7735,-7.7735,-7.7734,0,-7.7394,-7.7407,-7.7465,-7.7515,-7.7563,-7.7517,-7.7552,-7.7595,-7.7663,-7.7689,-7.7735,-7.781,-7.7866,-7.7867,-7.7919,-7.7964,-7.7944,-7.7979,-7.7975,-7.7978,-7.7784,-7.7758,-7.7994,-7.7994,-7.7994,-7.7994,-7.7994,-7.7994,-7.7527,-7.763,-7.7622,-7.7735,-7.7746,-7.7821,-7.7844,-7.7873,-7.7894,-7.798,-7.8028,-7.8028,-7.8043,-7.8096,-7.8146,-7.8144,-7.8165,-7.8208,-7.8198,-7.8017,-7.7991,-7.7967,-7.7942,-7.8213,-7.8213,-7.8387,-7.8388,-7.839]}]]